Weather History for Jefferson City, MO

Change the Weather History Date:

Sunday, April 7, 2013

  Actual Average Record
Temperature  
Mean Temperature 63 °F -  
Max Temperature 78 °F 65 °F 86 °F (1929)
Min Temperature 48 °F 38 °F 20 °F (1990)
Degree Days  
Heating Degree Days 2    
Growing Degree Days 13 (Base 50)    
Moisture  
Dew Point 47 °F    
Average Humidity 60    
Maximum Humidity 89    
Minimum Humidity 28    
Precipitation  
Precipitation 0.12 in - - ()
Sea Level Pressure  
Sea Level Pressure 29.79 in    
Wind  
Wind Speed 4 mph (SE)    
Max Wind Speed 33 mph    
Max Gust Speed 41 mph    
Visibility 10 miles    
Events Rain , Thunderstorm    
Averages and records for this station are not official NWS values.
T = Trace of Precipitation, MM = Missing Value Source: NWS Daily Summary

Daily Weather History Graph

Daily Weather History Graph

Search for Another Location

Airport:

Trip Planner

Search our weather history database for the weather conditions in past years. The results will help you decide how hot, cold, wet, or windy it might be!

Date:

Astronomy

Apr. 07, 2013 Rise Set
Actual Time 6:43 AM CDT 7:37 PM CDT
Civil Twilight 6:16 AM CDT 8:05 PM CDT
Nautical Twilight 5:44 AM CDT 8:37 PM CDT
Astronomical Twilight 5:11 AM CDT 9:10 PM CDT
Moon 4:59 AM CDT (4/7) 5:11 PM CDT (4/7)
Length of Visible Light 13h 48m
Length of Day
12h 54m
Waning Crescent, 8% of the Moon is Illuminated
Apr 7
Waning Crescent
Apr 10
New
Apr 18
First Quarter
Apr 25
Full
May 2
Last Quarter

Hourly Weather History & Observations

Time (CDT) Temp. Dew Point Humidity Pressure Visibility Wind Dir Wind Speed Gust Speed Precip Events Conditions
12:53 AM 64.9 °F 48.0 °F 54% 29.78 in 10.0 mi Calm Calm - N/A   Partly Cloudy
1:53 AM 57.9 °F 46.9 °F 67% 29.79 in 10.0 mi Calm Calm - N/A   Clear
2:53 AM 54.0 °F 46.0 °F 75% 29.80 in 10.0 mi Calm Calm - N/A   Clear
3:53 AM 52.0 °F 45.0 °F 77% 29.81 in 10.0 mi Calm Calm - N/A   Clear
4:53 AM 48.9 °F 44.1 °F 83% 29.82 in 10.0 mi Calm Calm - N/A   Clear
5:53 AM 48.0 °F 44.1 °F 86% 29.83 in 10.0 mi Calm Calm - N/A   Clear
6:53 AM 48.0 °F 45.0 °F 89% 29.85 in 10.0 mi Calm Calm - N/A   Clear
7:53 AM 48.0 °F 44.1 °F 86% 29.87 in 10.0 mi Calm Calm - N/A   Clear
8:53 AM 57.0 °F 46.9 °F 69% 29.87 in 10.0 mi Calm Calm - N/A   Clear
9:53 AM 64.0 °F 48.0 °F 56% 29.86 in 10.0 mi SE 3.5 mph - N/A   Clear
10:53 AM 68.0 °F 46.9 °F 47% 29.87 in 10.0 mi SSE 4.6 mph - N/A   Clear
11:53 AM 72.0 °F 46.0 °F 40% 29.87 in 10.0 mi ESE 8.1 mph - N/A   Clear
12:53 PM 75.0 °F 45.0 °F 34% 29.84 in 10.0 mi SE 4.6 mph - N/A   Clear
1:53 PM 75.0 °F 44.1 °F 33% 29.83 in 10.0 mi SSE 8.1 mph - N/A   Clear
2:53 PM 75.0 °F 44.1 °F 33% 29.81 in 10.0 mi South 5.8 mph - N/A   Clear
3:53 PM 77.0 °F 42.1 °F 29% 29.78 in 10.0 mi ESE 4.6 mph - N/A   Clear
4:53 PM 78.1 °F 42.1 °F 28% 29.75 in 10.0 mi ESE 8.1 mph - N/A   Clear
5:53 PM 77.0 °F 41.0 °F 28% 29.74 in 10.0 mi SSE 6.9 mph - N/A   Partly Cloudy
6:53 PM 73.9 °F 45.0 °F 35% 29.75 in 10.0 mi SSE 3.5 mph - N/A   Overcast
7:53 PM 71.1 °F 46.9 °F 42% 29.75 in 10.0 mi Calm Calm - 0.00 in Rain Light Rain
8:53 PM 63.0 °F 53.1 °F 70% 29.76 in 9.0 mi North 5.8 mph - 0.04 in Rain Light Rain
9:51 PM 60.8 °F 55.4 °F 82% 29.65 in 8.0 mi ESE 33.4 mph 41.4 mph 0.06 in Rain , Thunderstorm Thunderstorms and Rain
9:53 PM 61.0 °F 55.0 °F 81% 29.61 in 7.0 mi ESE 31.1 mph 41.4 mph 0.07 in Rain , Thunderstorm Thunderstorms and Rain
10:00 PM 60.8 °F 55.4 °F 82% 29.71 in 7.0 mi SE 19.6 mph 39.1 mph 0.01 in Rain Light Rain
10:53 PM 62.1 °F 55.0 °F 78% 29.73 in 10.0 mi South 8.1 mph - 0.01 in   Mostly Cloudy
11:53 PM 63.0 °F 55.9 °F 78% 29.71 in 10.0 mi SSE 12.7 mph - N/A   Scattered Clouds